Current weather by "City, St" or "zip code"  
 
Advertise Here

Current Conditions: Moose Lake Carlton County Airport, MN

Partly Cloudy


72.0 F

Last Updated on Aug 4 2020, 3:55 pm CDT
Humidity: 47%
Wind Speed: N 0.0 mph
Barometer 30.09 in
Dewpoint: 50.0 F
Visibility: 10.00 mi
Precip: --
Heat Index: NA
Wind Chill: NA
Current conditions at:

Moose Lake Carlton County Airport, MN (KMZH)

Lat: 46.41632 Lon: 92.80491

Local Radar Image active severe weather and emergency alerts image image weather storm and storm spotter reports image weather observation monitoring service image
Local
Radar
Active
Alerts
Storm Reports Obs
Monitoring

Sign-up For Email & Text Message Weather Alert Notification Services


Advertise Here

Observation History for Moose Lake Carlton County Airport, MN


Time Wind
(mph)
Vis
(mi)
Weather Precip (in) Temperature (F) Relative
Humidity
Wind
Chill
(F)
Heat
Index
(F)
Pressure
Air Dwpt altimeter
(in)
sea level
(mb)
Rmks
3:55 pm CDT N 0.0 10.00 Partly Cloudy -- 72.0 50.0 47% NA NA 30.09 M
2:55 pm CDT NE 3.5 10.00 Partly Cloudy -- 72.0 50.0 47% NA NA 30.10 M
1:55 pm CDT N 0.0 10.00 Mostly Cloudy -- 70.0 50.0 50% NA NA 30.12 M
12:55 pm CDT N 0.0 10.00 Partly Cloudy -- 68.0 50.0 53% NA NA 30.13 M
11:55 am CDT SE 3.5 10.00 Fair -- 68.0 51.8 56% NA NA 30.14 M
10:55 am CDT E 3.5 10.00 Fair -- 66.0 51.8 60% NA NA 30.14 M
9:55 am CDT NE 4.6 10.00 Fair -- 64.0 51.8 64% NA NA 30.14 M
8:55 am CDT NE 3.5 10.00 Fair -- 61.0 51.8 72% NA NA 30.13 M
7:55 am CDT N 0.0 10.00 Fair -- 54.0 50.0 88% NA NA 30.14 M
6:55 am CDT N 0.0 10.00 Partly Cloudy -- 48.0 46.4 94% NA NA 30.14 M
5:55 am CDT N 0.0 10.00 Partly Cloudy -- 46.0 44.6 93% NA NA 30.14 M
4:55 am CDT N 0.0 10.00 Partly Cloudy -- 50.0 46.4 88% NA NA 30.14 M
3:55 am CDT N 0.0 10.00 Mostly Cloudy -- 52.0 50.0 94% NA NA 30.13 M
2:55 am CDT N 0.0 10.00 Overcast -- 54.0 50.0 88% NA NA 30.14 M
1:55 am CDT N 0.0 10.00 Overcast -- 54.0 50.0 88% NA NA 30.15 M
12:55 am CDT N 0.0 10.00 Overcast -- 54.0 50.0 88% NA NA 30.15 M
11:55 pm CDT SW 4.6 10.00 Overcast -- 52.0 50.0 94% 51 NA 30.14 M
10:55 pm CDT SW 3.5 10.00 Partly Cloudy -- 52.0 50.0 94% NA NA 30.14 M
9:55 pm CDT N 0.0 10.00 Fair -- 52.0 50.0 94% NA NA 30.14 M
8:55 pm CDT N 0.0 10.00 Fair -- 55.0 53.6 94% NA NA 30.13 M
7:55 pm CDT N 0.0 10.00 Fair -- 63.0 53.6 73% NA NA 30.13 M
6:55 pm CDT N 0.0 10.00 Fair -- 68.0 44.6 43% NA NA 30.14 M
5:55 pm CDT N 0.0 10.00 Partly Cloudy -- 70.0 44.6 40% NA NA 30.15 M
4:55 pm CDT N 0.0 10.00 Partly Cloudy -- 70.0 44.6 40% NA NA 30.16 M

Regional Weather Observation


Moose Lake Carlton County Airport, MN (KMZH)

Partly Cloudy
72.0 F

Cloquet Carlton County Airport, MN (KCOQ)

Partly Cloudy
70.0 F

Aitkin Municipal Airport - Steve Kurtz Field, MN (KAIT)

Partly Cloudy
73.0 F

Hinckley Field of Dreams Airport, MN (K04W)

Overcast
73.0 F

Duluth International Airport, MN (KDLH)

A Few Clouds
67.0 F

Richard I. Bong Airport, WI (KSUW)

Fair
69.0 F